Wetbulb
48.59 45.69 43.40 41.95 41.34 40.37 39.77 39.62 39.46 38.73 37.73 36.38 36.20 35.38 34.12 32.51 31.97 31.59 31.36 30.32 29.98 29.86
49.66 46.73 43.49 42.30 41.97 41.03 40.48 40.32 39.20 38.45 37.43 36.30 35.38 34.34 33.20 32.38 31.14 30.80 30.53 30.24 29.90 28.96
50.53 48.23 44.52 42.88 41.56 40.85 40.41 40.20 38.75 37.93 37.29 35.80 34.78 33.72 32.56 31.45 30.95 30.42 29.86 30.59 29.64 28.98
50.95 49.18 45.86 42.94 42.23 41.14 40.45 39.89 38.66 38.08 36.85 35.30 34.10 33.31 32.17 31.38 30.91 29.89 29.67 29.72 29.19 28.82
51.13 49.24 46.91 43.31 42.26 41.40 40.22 39.80 38.84 37.96 36.54 34.96 33.90 32.96 32.23 31.35 31.54 29.96 29.17 28.42 28.21 28.19
50.12 48.60 47.70 43.81 42.28 41.54 40.34 39.10 38.36 37.43 35.77 34.35 33.32 32.42 32.10 31.42 30.62 29.60 29.14 29.01 28.28 28.30
49.21 48.01 47.96 44.22 42.38 41.27 40.11 38.28 37.36 36.82 35.54 34.13 33.16 32.01 31.43 30.18 29.74 29.11 29.11 29.15 28.98 29.02
48.31 47.67 47.23 43.32 42.47 41.02 38.89 37.70 37.00 35.37 34.17 33.11 32.19 31.59 29.56 29.62 29.24 28.53 28.42 29.51 30.66 29.97
46.75 46.16 43.89 42.22 41.20 39.45 37.06 36.37 35.23 33.68 32.20 30.47 31.47 36.21 35.91 32.32 29.44 29.54 29.78 30.02 30.88 30.61
44.24 42.49 41.13 40.57 38.76 36.61 35.49 34.39 32.67 31.25 30.16 29.09 29.05 37.49 36.63 35.22 30.57 30.43 31.20 31.78 31.21 30.36
39.50 38.26 37.87 37.97 36.55 35.23 33.94 32.08 29.28 27.91 27.29 27.03 30.95 37.14 36.57 35.40 32.01 31.55 31.93 31.87 30.55 28.92
36.46 34.90 35.11 34.76 34.40 32.85 30.70 28.89 27.90 26.91 26.26 28.01 31.47 37.08 36.45 34.46 32.47 31.31 30.61 30.73 30.82 29.75
35.07 34.73 34.19 33.49 31.18 30.27 29.74 28.01 27.64 26.82 27.80 32.47 31.44 36.42 36.52 34.28 31.55 30.17 29.79 30.18 30.09 33.76
33.11 32.75 32.53 30.96 29.66 28.60 27.47 26.70 26.28 26.31 28.83 30.63 33.00 34.35 36.66 35.08 31.37 30.04 28.93 28.72 29.27 29.63
MSLP
1009.32 1010.07 1011.03 1011.95 1012.89 1013.77 1014.40 1015.49 1016.86 1017.84 1018.45 1019.41 1020.46 1021.07 1021.58 1022.44 1022.80 1023.19 1023.43 1023.90 1024.47 1025.31
1008.26 1009.25 1010.14 1011.15 1011.90 1012.76 1013.58 1014.88 1016.04 1017.03 1018.24 1019.14 1020.05 1020.64 1021.42 1022.07 1022.57 1022.94 1023.10 1023.58 1024.18 1025.05
1007.18 1008.29 1009.35 1010.53 1011.01 1011.69 1012.77 1014.02 1015.16 1016.24 1017.62 1018.61 1019.55 1020.10 1020.96 1021.82 1022.23 1022.73 1022.79 1023.14 1023.73 1024.72
1006.36 1007.38 1008.47 1009.61 1010.39 1011.15 1012.16 1013.24 1014.24 1015.28 1016.84 1017.76 1018.69 1019.45 1020.61 1021.27 1021.71 1022.36 1022.49 1022.78 1023.48 1024.46
1005.75 1006.78 1007.80 1008.74 1009.65 1010.77 1011.76 1012.73 1013.58 1014.90 1016.25 1016.99 1017.78 1018.53 1019.96 1020.72 1021.44 1021.91 1022.15 1022.48 1023.32 1024.14
1005.15 1005.84 1006.88 1007.83 1008.93 1010.33 1011.36 1012.24 1013.47 1014.53 1015.33 1016.30 1017.08 1017.95 1019.20 1020.28 1020.92 1021.52 1021.68 1022.13 1022.96 1023.64
1004.49 1005.34 1006.17 1007.19 1008.40 1009.72 1010.71 1011.78 1012.93 1014.00 1014.94 1015.82 1016.80 1017.58 1018.42 1019.73 1020.58 1021.11 1021.28 1021.82 1022.55 1023.21
1004.29 1005.10 1005.90 1006.89 1007.95 1009.25 1010.37 1011.61 1012.58 1013.60 1014.78 1015.79 1016.56 1017.28 1017.92 1019.00 1020.18 1020.49 1021.02 1021.60 1022.28 1022.84
1004.31 1005.06 1005.81 1006.69 1007.59 1008.72 1009.97 1011.24 1012.45 1013.37 1014.26 1015.44 1016.32 1017.10 1017.50 1018.50 1019.66 1020.27 1020.84 1021.51 1022.12 1022.35
1004.39 1005.03 1005.90 1006.62 1007.84 1008.78 1010.00 1011.15 1012.21 1013.15 1013.99 1015.02 1015.98 1016.80 1017.45 1018.43 1019.41 1020.03 1020.54 1021.10 1021.73 1022.20
1004.87 1005.50 1006.17 1007.04 1008.14 1009.05 1010.11 1011.17 1012.39 1013.48 1014.21 1015.05 1015.93 1016.80 1017.35 1018.25 1019.14 1019.80 1020.38 1020.97 1021.51 1021.85
1005.28 1006.12 1006.80 1007.65 1008.51 1009.35 1010.34 1011.61 1012.72 1013.54 1014.42 1015.21 1016.08 1016.60 1017.16 1018.17 1018.92 1019.73 1020.34 1020.77 1021.22 1021.60
1005.75 1006.31 1007.05 1007.89 1008.85 1009.82 1010.86 1011.97 1012.99 1013.94 1014.61 1015.24 1015.86 1016.42 1017.18 1017.98 1018.65 1019.43 1020.09 1020.63 1021.11 1021.50
1006.00 1006.53 1007.26 1008.19 1009.24 1010.25 1011.40 1012.53 1013.47 1014.18 1014.92 1015.51 1015.77 1016.54 1017.26 1017.87 1018.47 1019.09 1019.85 1020.47 1020.98 1021.38
Wind_Speed
19 14 14 17 15 13 13 13 15 12 11 10 10 9 8 5 5 6 6 8 6 4
19 19 16 19 16 14 14 13 16 15 14 12 11 10 9 7 7 6 6 6 7 4
19 18 15 16 18 18 15 17 18 17 15 14 13 12 10 7 7 7 5 5 7 5
18 19 16 16 15 16 16 18 19 19 17 17 15 13 11 9 9 8 7 6 7 7
17 17 17 16 16 16 17 17 19 18 17 16 16 15 13 12 11 10 9 8 7 7
18 18 18 16 16 16 16 17 17 18 18 17 16 16 13 11 11 8 8 8 8 7
17 17 17 15 16 16 16 17 17 16 16 16 15 14 13 11 10 9 8 8 7 7
14 14 14 15 16 15 15 15 16 15 13 13 13 11 13 13 11 10 8 7 7 6
12 14 13 15 15 15 15 15 14 14 15 14 10 23 24 16 11 9 9 8 6 6
9 10 11 12 13 13 14 13 13 13 14 14 11 26 25 22 9 9 8 8 6 5
7 7 8 11 12 12 10 12 11 11 11 12 11 25 24 22 10 8 7 7 6 6
7 8 9 10 11 10 12 11 11 11 13 14 13 25 25 17 10 8 8 6 6 5
7 10 11 10 10 10 11 11 10 11 12 17 14 24 24 15 8 9 6 5 5 6
7 9 10 10 10 10 11 11 11 12 10 12 14 17 22 18 8 7 6 4 4 3
Wind_Direction
191 187 183 180 176 179 175 174 166 164 154 153 153 152 147 146 149 155 148 147 132 141
189 189 185 183 178 178 170 168 164 162 159 156 156 154 152 157 160 159 155 150 143 139
192 190 180 183 181 177 170 168 165 163 164 160 159 156 154 162 162 160 163 153 148 153
193 192 180 185 182 176 169 169 170 168 166 164 163 161 162 166 164 167 161 143 147 164
191 189 188 181 179 177 175 172 169 168 168 165 166 162 169 168 172 171 163 150 145 170
191 188 192 177 175 177 173 169 169 170 170 169 168 164 166 167 164 168 155 152 160 170
190 187 190 171 173 176 170 167 170 172 170 169 166 164 159 155 156 162 156 156 158 166
184 182 184 168 170 170 167 168 168 164 164 164 163 162 155 154 163 158 150 148 154 159
177 179 172 166 168 163 161 166 166 164 158 158 165 171 162 155 154 150 150 154 164 163
167 163 162 158 158 157 163 158 161 158 155 155 157 167 165 159 150 150 152 153 153 151
136 134 137 148 157 152 150 151 146 144 141 140 156 165 161 156 144 139 144 141 139 147
122 125 134 142 149 142 136 135 143 141 141 146 158 163 156 148 141 137 137 138 147 149
135 144 148 144 137 139 139 142 140 140 147 154 154 161 160 144 139 140 136 132 148 181
138 140 139 132 137 135 136 135 138 136 142 144 148 159 154 149 136 136 134 136 146 140